Radiation Dose at Monitoring Post of Fukushima Daini Nuclear Power Station
Date,Time,MP-1(microSv/h),MP-2(microSv/h),MP-3(microSv/h),MP-4(microSv/h),MP-5(microSv/h),MP-6(microSv/h),MP-7(microSv/h),Wind Direction,Wind Velocity(m/s),Rain
2018/02/15,00:00,0.342,0.208,0.341,0.323,0.305,0.171,0.103,south-southwest,9.5,No
2018/02/15,00:10,0.341,0.208,0.341,0.323,0.307,0.172,0.102,south-southwest,9.5,No
2018/02/15,00:20,0.341,0.208,0.343,0.324,0.308,0.172,0.103,south-southwest,10.6,No
2018/02/15,00:30,0.342,0.208,0.341,0.323,0.306,0.171,0.103,southwest,9.8,No
2018/02/15,00:40,0.342,0.209,0.342,0.325,0.307,0.170,0.102,southwest,10.9,No
2018/02/15,00:50,0.341,0.209,0.342,0.325,0.306,0.171,0.102,south-southwest,9.7,No
2018/02/15,01:00,0.340,0.208,0.342,0.323,0.306,0.172,0.103,southwest,10.7,No
2018/02/15,01:10,0.342,0.207,0.340,0.324,0.306,0.170,0.102,south-southwest,9.3,No
2018/02/15,01:20,0.342,0.208,0.342,0.322,0.306,0.171,0.102,southwest,9.8,No
2018/02/15,01:30,0.341,0.209,0.343,0.325,0.307,0.171,0.103,southwest,10.1,No
2018/02/15,01:40,0.341,0.209,0.341,0.325,0.305,0.170,0.103,southwest,9.0,No
2018/02/15,01:50,0.342,0.208,0.341,0.323,0.307,0.170,0.102,southwest,9.2,No
2018/02/15,02:00,0.342,0.208,0.343,0.325,0.306,0.171,0.103,southwest,5.8,No
2018/02/15,02:10,0.343,0.208,0.342,0.325,0.308,0.170,0.102,west,5.8,No
2018/02/15,02:20,0.343,0.209,0.342,0.324,0.306,0.171,0.102,west,5.5,No
2018/02/15,02:30,0.342,0.208,0.342,0.323,0.305,0.171,0.103,west-northwest,6.7,No
2018/02/15,02:40,0.341,0.208,0.341,0.324,0.305,0.171,0.103,west-northwest,5.1,No
2018/02/15,02:50,0.342,0.208,0.343,0.325,0.307,0.172,0.103,west-northwest,5.8,No
2018/02/15,03:00,0.341,0.208,0.341,0.324,0.306,0.171,0.102,west,7.3,No
2018/02/15,03:10,0.342,0.209,0.341,0.322,0.306,0.170,0.102,west,6.7,No
2018/02/15,03:20,0.341,0.208,0.342,0.325,0.305,0.170,0.102,west-northwest,5.8,No
2018/02/15,03:30,0.342,0.209,0.342,0.325,0.307,0.170,0.102,west-northwest,2.7,No
2018/02/15,03:40,0.341,0.208,0.341,0.324,0.306,0.170,0.103,west-northwest,4.7,No
2018/02/15,03:50,0.340,0.207,0.341,0.324,0.307,0.170,0.103,northwest,3.1,No
2018/02/15,04:00,0.342,0.209,0.341,0.324,0.305,0.171,0.102,west-northwest,2.9,No
2018/02/15,04:10,0.339,0.208,0.342,0.324,0.305,0.170,0.103,west-northwest,3.3,No
2018/02/15,04:20,0.342,0.208,0.341,0.326,0.305,0.171,0.103,west-northwest,4.1,No
2018/02/15,04:30,0.342,0.207,0.341,0.323,0.307,0.170,0.102,northwest,5.1,No
2018/02/15,04:40,0.340,0.208,0.343,0.323,0.305,0.170,0.102,north-northwest,3.3,No
2018/02/15,04:50,0.342,0.208,0.343,0.324,0.307,0.170,0.102,northwest,3.3,No
2018/02/15,05:00,0.342,0.208,0.343,0.323,0.305,0.171,0.102,north-northwest,3.5,No
2018/02/15,05:10,0.341,0.209,0.342,0.325,0.306,0.170,0.103,north-northwest,3.5,No
2018/02/15,05:20,0.341,0.207,0.342,0.324,0.306,0.170,0.102,northwest,4.2,No
2018/02/15,05:30,0.343,0.207,0.343,0.325,0.305,0.170,0.102,northwest,5.1,No
2018/02/15,05:40,0.341,0.207,0.341,0.325,0.305,0.171,0.102,northwest,7.1,No
2018/02/15,05:50,0.341,0.208,0.342,0.324,0.305,0.171,0.103,west-northwest,6.8,No
2018/02/15,06:00,0.341,0.208,0.342,0.324,0.307,0.170,0.102,west-northwest,7.7,No
2018/02/15,06:10,0.342,0.208,0.343,0.324,0.306,0.171,0.102,west-northwest,10.0,No
2018/02/15,06:20,0.342,0.207,0.342,0.325,0.305,0.171,0.102,west-northwest,8.4,No
2018/02/15,06:30,0.340,0.206,0.342,0.323,0.305,0.170,0.102,northwest,9.2,No
2018/02/15,06:40,0.341,0.209,0.342,0.323,0.306,0.171,0.103,northwest,8.7,No
2018/02/15,06:50,0.340,0.208,0.342,0.324,0.306,0.170,0.102,west-northwest,10.1,No
2018/02/15,07:00,0.342,0.208,0.343,0.323,0.307,0.170,0.102,north-northwest,9.2,No
2018/02/15,07:10,0.341,0.208,0.341,0.324,0.308,0.171,0.101,northwest,8.1,No
2018/02/15,07:20,0.341,0.208,0.342,0.324,0.307,0.170,0.103,north-northwest,5.9,No
2018/02/15,07:30,0.342,0.208,0.343,0.323,0.308,0.171,0.102,north-northwest,4.4,No
2018/02/15,07:40,0.342,0.208,0.342,0.324,0.308,0.171,0.101,northwest,4.2,No
2018/02/15,07:50,0.343,0.208,0.343,0.325,0.307,0.170,0.102,northwest,4.0,No
2018/02/15,08:00,0.341,0.209,0.342,0.323,0.308,0.170,0.102,northwest,4.7,No
2018/02/15,08:10,0.341,0.210,0.342,0.323,0.308,0.171,0.102,west-northwest,5.8,No
2018/02/15,08:20,0.341,0.208,0.342,0.322,0.307,0.169,0.103,northwest,5.6,No
2018/02/15,08:30,0.342,0.208,0.342,0.325,0.305,0.170,0.102,northwest,6.1,No
2018/02/15,08:40,0.341,0.207,0.340,0.324,0.307,0.171,0.102,west-northwest,6.0,No
2018/02/15,08:50,0.342,0.208,0.342,0.324,0.307,0.170,0.101,west,6.8,No
2018/02/15,09:00,0.341,0.208,0.342,0.324,0.306,0.169,0.103,northwest,3.1,No
2018/02/15,09:10,0.342,0.207,0.343,0.324,0.306,0.170,0.102,northwest,4.0,No
2018/02/15,09:20,0.342,0.208,0.341,0.324,0.308,0.171,0.102,west-northwest,3.3,No
2018/02/15,09:30,0.342,0.208,0.341,0.324,0.307,0.171,0.101,north,0.9,No
2018/02/15,09:40,0.341,0.207,0.341,0.324,0.308,0.170,0.102,west-northwest,3.7,No
2018/02/15,09:50,0.341,0.207,0.343,0.323,0.306,0.171,0.102,west,7.8,No
2018/02/15,10:00,0.341,0.209,0.342,0.324,0.307,0.170,0.102,west,7.0,No
2018/02/15,10:10,0.340,0.207,0.342,0.324,0.307,0.171,0.102,west,8.4,No
2018/02/15,10:20,0.342,0.208,0.341,0.325,0.308,0.171,0.103,west-northwest,6.4,No
2018/02/15,10:30,0.340,0.208,0.342,0.323,0.308,0.170,0.101,northwest,6.2,No
2018/02/15,10:40,0.339,0.208,0.343,0.324,0.305,0.170,0.102,west-northwest,6.9,No
2018/02/15,10:50,0.340,0.207,0.342,0.322,0.307,0.171,0.102,west-northwest,8.4,No
2018/02/15,11:00,0.341,0.208,0.342,0.323,0.306,0.171,0.102,west-northwest,5.9,No
2018/02/15,11:10,0.341,0.208,0.341,0.324,0.306,0.171,0.102,west-northwest,6.7,No
2018/02/15,11:20,0.342,0.208,0.342,0.323,0.307,0.170,0.102,west-northwest,6.2,No
2018/02/15,11:30,0.343,0.208,0.342,0.325,0.307,0.171,0.102,west-northwest,5.9,No
2018/02/15,11:40,0.341,0.208,0.342,0.325,0.308,0.171,0.102,northwest,5.7,No
2018/02/15,11:50,0.342,0.207,0.341,0.323,0.306,0.170,0.101,northwest,7.3,No
2018/02/15,12:00,0.342,0.208,0.341,0.324,0.306,0.171,0.101,northwest,6.2,No
2018/02/15,12:10,0.339,0.208,0.344,0.322,0.308,0.171,0.101,northwest,6.3,No
2018/02/15,12:20,0.340,0.207,0.341,0.324,0.306,0.172,0.102,west-northwest,5.3,No
2018/02/15,12:30,0.343,0.208,0.342,0.322,0.308,0.171,0.102,north-northwest,6.4,No
2018/02/15,12:40,0.341,0.209,0.341,0.322,0.306,0.170,0.102,west-northwest,6.7,No
2018/02/15,12:50,0.341,0.208,0.341,0.324,0.306,0.170,0.102,northwest,6.8,No
2018/02/15,13:00,0.341,0.207,0.342,0.322,0.308,0.171,0.102,northwest,8.2,No
2018/02/15,13:10,0.341,0.208,0.342,0.324,0.306,0.171,0.102,northwest,6.9,No
2018/02/15,13:20,0.343,0.208,0.340,0.323,0.308,0.171,0.101,west-northwest,5.2,No
2018/02/15,13:30,0.341,0.207,0.343,0.324,0.307,0.171,0.102,west-northwest,6.8,No
2018/02/15,13:40,0.341,0.207,0.343,0.323,0.306,0.171,0.101,west-northwest,8.4,No
2018/02/15,13:50,0.344,0.208,0.341,0.323,0.308,0.170,0.101,west-northwest,7.3,No
2018/02/15,14:00,0.342,0.208,0.343,0.324,0.305,0.168,0.102,northwest,10.1,No
2018/02/15,14:10,0.341,0.208,0.340,0.324,0.306,0.167,0.102,west-northwest,10.9,No
2018/02/15,14:20,0.343,0.207,0.341,0.325,0.308,0.168,0.102,west-northwest,11.5,No
2018/02/15,14:30,0.343,0.208,0.343,0.326,0.307,0.167,0.102,northwest,8.4,No
2018/02/15,14:40,0.343,0.208,0.342,0.323,0.307,0.168,0.102,northwest,7.4,No
2018/02/15,14:50,0.341,0.208,0.343,0.326,0.307,0.171,0.102,west-northwest,8.9,No
2018/02/15,15:00,0.342,0.208,0.344,0.325,0.307,0.170,0.102,west-northwest,7.8,No
2018/02/15,15:10,0.342,0.208,0.343,0.325,0.308,0.170,0.103,west,10.0,No
2018/02/15,15:20,0.342,0.208,0.343,0.325,0.309,0.170,0.102,west-northwest,7.3,No
2018/02/15,15:30,0.341,0.207,0.343,0.326,0.308,0.171,0.103,west-northwest,8.7,No
2018/02/15,15:40,0.343,0.209,0.342,0.324,0.307,0.170,0.102,west-northwest,10.3,Yes
2018/02/15,15:50,0.343,0.208,0.342,0.325,0.309,0.171,0.102,west-northwest,11.2,Yes
2018/02/15,16:00,0.342,0.209,0.344,0.326,0.309,0.169,0.101,west-northwest,11.2,No
2018/02/15,16:10,0.343,0.207,0.344,0.325,0.308,0.171,0.102,west-northwest,12.0,No
2018/02/15,16:20,0.343,0.207,0.344,0.326,0.308,0.172,0.102,west,12.2,No
2018/02/15,16:30,0.343,0.207,0.342,0.324,0.308,0.171,0.102,west,11.4,No
2018/02/15,16:40,0.343,0.208,0.343,0.326,0.308,0.170,0.103,west-northwest,13.1,No
2018/02/15,16:50,0.342,0.208,0.343,0.326,0.309,0.171,0.102,west-northwest,12.5,No
2018/02/15,17:00,0.343,0.208,0.343,0.325,0.308,0.170,0.103,west,14.5,No
2018/02/15,17:10,0.342,0.209,0.343,0.326,0.309,0.172,0.102,west-northwest,11.2,No
2018/02/15,17:20,0.344,0.208,0.344,0.325,0.308,0.171,0.103,west-northwest,11.7,No
2018/02/15,17:30,0.343,0.208,0.343,0.325,0.308,0.171,0.102,west-northwest,11.8,No
2018/02/15,17:40,0.343,0.209,0.344,0.324,0.309,0.170,0.102,west-northwest,13.6,No
2018/02/15,17:50,0.342,0.208,0.345,0.325,0.308,0.171,0.102,west-northwest,12.6,No
2018/02/15,18:00,0.342,0.208,0.343,0.326,0.308,0.170,0.103,west,10.3,No
2018/02/15,18:10,0.343,0.208,0.344,0.324,0.309,0.171,0.102,west,12.0,No
2018/02/15,18:20,0.343,0.207,0.344,0.323,0.307,0.170,0.102,west-northwest,15.6,No
2018/02/15,18:30,0.343,0.207,0.343,0.325,0.308,0.170,0.102,west,13.1,No
2018/02/15,18:40,0.341,0.207,0.344,0.325,0.308,0.171,0.102,west-northwest,14.5,No
2018/02/15,18:50,0.341,0.208,0.343,0.325,0.308,0.171,0.102,west-northwest,14.9,No
2018/02/15,19:00,0.343,0.208,0.343,0.324,0.310,0.171,0.102,west,11.2,No
2018/02/15,19:10,0.342,0.209,0.346,0.326,0.309,0.170,0.102,west,11.8,No
2018/02/15,19:20,0.343,0.209,0.346,0.325,0.310,0.171,0.102,west-northwest,8.5,No
2018/02/15,19:30,0.344,0.210,0.344,0.324,0.310,0.171,0.103,west,8.1,No
2018/02/15,19:40,0.343,0.209,0.343,0.326,0.308,0.171,0.103,west-northwest,5.0,No
2018/02/15,19:50,0.343,0.209,0.343,0.324,0.309,0.170,0.103,northwest,4.9,No
2018/02/15,20:00,0.343,0.209,0.344,0.325,0.308,0.171,0.102,west,4.0,No
2018/02/15,20:10,0.343,0.210,0.343,0.325,0.308,0.171,0.102,west-northwest,3.7,No
2018/02/15,20:20,0.344,0.209,0.343,0.324,0.309,0.170,0.103,northwest,5.4,No
2018/02/15,20:30,0.344,0.209,0.344,0.325,0.307,0.171,0.102,west-northwest,3.9,No
2018/02/15,20:40,0.342,0.209,0.344,0.325,0.307,0.171,0.103,northwest,6.5,No
2018/02/15,20:50,0.342,0.208,0.344,0.326,0.307,0.170,0.103,west-northwest,4.7,No
2018/02/15,21:00,0.342,0.209,0.344,0.325,0.306,0.170,0.102,northwest,4.3,No
2018/02/15,21:10,0.344,0.209,0.343,0.325,0.308,0.171,0.103,north-northwest,3.6,No
2018/02/15,21:20,0.343,0.208,0.343,0.324,0.306,0.171,0.102,northwest,2.1,No
2018/02/15,21:30,0.342,0.209,0.343,0.326,0.306,0.170,0.102,northwest,2.0,No
2018/02/15,21:40,0.343,0.209,0.343,0.325,0.306,0.172,0.103,northwest,1.4,No
2018/02/15,21:50,0.343,0.208,0.344,0.325,0.307,0.171,0.101,west-northwest,1.1,No
2018/02/15,22:00,0.343,0.209,0.343,0.324,0.306,0.170,0.102,west-northwest,2.7,No
2018/02/15,22:10,0.343,0.208,0.343,0.325,0.306,0.171,0.102,northwest,2.6,No
2018/02/15,22:20,0.343,0.208,0.344,0.326,0.306,0.170,0.102,west-northwest,4.0,No
2018/02/15,22:30,0.344,0.208,0.342,0.325,0.306,0.170,0.102,west,5.2,No
2018/02/15,22:40,0.343,0.209,0.343,0.325,0.306,0.172,0.102,west,3.5,No
2018/02/15,22:50,0.342,0.208,0.344,0.324,0.307,0.170,0.102,west,2.5,No
2018/02/15,23:00,0.342,0.208,0.343,0.324,0.305,0.170,0.101,northwest,2.5,No
2018/02/15,23:10,0.344,0.208,0.343,0.325,0.306,0.172,0.102,west-northwest,1.7,No
2018/02/15,23:20,0.343,0.207,0.343,0.325,0.306,0.171,0.102,west,1.7,No
2018/02/15,23:30,0.343,0.209,0.343,0.324,0.307,0.170,0.102,west-northwest,1.8,No
2018/02/15,23:40,0.342,0.208,0.343,0.325,0.305,0.170,0.101,northwest,1.9,No
2018/02/15,23:50,0.343,0.208,0.344,0.324,0.305,0.170,0.102,northwest,1.4,No
